カタログに戻る

DONGPO 15

運用中科学SSO
NORAD 66997·PAYLOAD·🇨🇳 China
この衛星名は、まだ公式ソースで確認されていません。

打ち上げ Dec 10, 2025 から Jiuquan Satellite Launch Center

Loading…

次のパス (今後24時間)

TLE

最新Source: Space-Track

元期: Sep 14, 2026, 03:43 UTC

1 66997U 25292E   26257.15506694  .00003145  00000-0  21422-3 0  9992
2 66997  97.6269 332.1250 0015590  63.0243 297.2575 15.06914379 41830

AllMySatでDONGPO 15をリアルタイム追跡

Download on the App Store